Location: Cucq
(50.4773°N, 1.6202°E)
Time: 17:50:07
(UTC+00:00)

CZ-2D R/B - Pass Details

Date: 07 August 2020
Orbit: 792 x 845 km, 98.7° (Epoch: 24 September)

Event Time Altitude Azimuth Distance (km) Brightness Sun altitude
Rises 00:28:39 0° 24° (NNE) 3,410 6.6 -22.9°
Reaches altitude 10° 00:31:30 10° 38° (NE) 2,474 5.5 -22.8°
Maximum altitude 00:35:55 24° 91° (E) 1,677 3.8 -22.7°
Enters shadow 00:38:04 19° 124° (SE) 1,897 3.8 -22.6°
